This is the latest recevied weather packets stored in our database for station/object KJ7BRE-1. If no packets are shown the sender has not sent any weather packets the latest 10 day(s).
| Time | Temp. | Humidity | Pressure | Rain* | Wind** | Luminosity | Snow |
|---|---|---|---|---|---|---|---|
| 1777574068 | 21.11° C | 46% | 1011.5 hPa | 0 mm | - | - | - |
| 1777573767 | 21.11° C | 48% | 1011.9 hPa | 0 mm | - | - | - |
| 1777573466 | 20.56° C | 49% | 1011.9 hPa | 0 mm | - | - | - |
| 1777573164 | 20° C | 49% | 1011.9 hPa | 0 mm | - | - | - |
| 1777572863 | 20° C | 47% | 1011.9 hPa | 0 mm | - | - | - |
| 1777572562 | 20° C | 52% | 1011.9 hPa | 0 mm | - | - | - |
| 1777572261 | 19.44° C | 53% | 1012.2 hPa | 0 mm | - | - | - |
| 1777571959 | 19.44° C | 54% | 1012.2 hPa | 0 mm | - | - | - |
| 1777571658 | 18.89° C | 54% | 1012.2 hPa | 0 mm | - | - | - |
| 1777571357 | 19.44° C | 54% | 1012.2 hPa | 0 mm | - | - | - |
| 1777571056 | 18.89° C | 54% | 1011.9 hPa | 0 mm | - | - | - |
| 1777570755 | 18.89° C | 54% | 1012.2 hPa | 0 mm | - | - | - |
| 1777570453 | 18.89° C | 54% | 1012.2 hPa | 0 mm | - | - | - |
| 1777570152 | 18.33° C | 55% | 1012.5 hPa | 0 mm | - | - | - |
| 1777569851 | 18.33° C | 56% | 1012.2 hPa | 0 mm | - | - | - |
| 1777569550 | 18.33° C | 55% | 1012.2 hPa | 0 mm | - | - | - |
| 1777569248 | 17.78° C | 55% | 1012.5 hPa | 0 mm | - | - | - |
| 1777568947 | 17.78° C | 56% | 1012.5 hPa | 0 mm | - | - | - |
| 1777568646 | 17.78° C | 56% | 1012.5 hPa | 0 mm | - | - | - |
| 1777568345 | 17.78° C | 53% | 1012.9 hPa | 0 mm | - | - | - |
| 1777568043 | 17.78° C | 54% | 1012.9 hPa | 0 mm | - | - | - |
| 1777567742 | 17.22° C | 51% | 1012.5 hPa | 0 mm | - | - | - |
| 1777567441 | 17.22° C | 52% | 1012.9 hPa | 0 mm | - | - | - |
| 1777567140 | 17.22° C | 55% | 1012.9 hPa | 0 mm | - | - | - |
| 1777566839 | 17.22° C | 55% | 1012.9 hPa | 0 mm | - | - | - |
* Rain latest hour (hover to see other rain measurements)
** Current wind speed in m/s (hover to see current wind gust speed)